Weather History for KPQL - December, 2011

Change the Weather History Date:

Wednesday, December 7, 2011

  Actual Average Record
Temperature  
Mean Temperature 42 °F -  
Max Temperature 48 °F 64 °F 79 °F (1998)
Min Temperature 37 °F 43 °F 26 °F (1984)
Degree Days  
Heating Degree Days 22    
Moisture  
Dew Point 35 °F    
Average Humidity 73    
Maximum Humidity 93    
Minimum Humidity 52    
Precipitation  
Precipitation 0.01 in - - ()
Sea Level Pressure  
Sea Level Pressure 30.20 in    
Wind  
Wind Speed 9 mph (NW)    
Max Wind Speed 16 mph    
Max Gust Speed 24 mph    
Visibility 10 miles    
Events Rain    
Averages and records for this station are not official NWS values.
T = Trace of Precipitation, MM = Missing Value Source: NWS Daily Summary

Daily Weather History Graph

Daily Weather History Graph

Search for Another Location

Airport or City:

Trip Planner

Search our weather history database for the weather conditions in past years. The results will help you decide how hot, cold, wet, or windy it might be!

Date:

Astronomy

Dec. 07, 2011 Rise Set
Actual Time 6:37 AM CST 4:53 PM CST
Civil Twilight 6:11 AM CST 5:19 PM CST
Nautical Twilight 5:41 AM CST 5:49 PM CST
Astronomical Twilight 5:12 AM CST 6:18 PM CST
Moon 2:50 PM CST (12/7) 3:58 AM CST (12/7)
Length of Visible Light 11h 07m
Length of Day
10h 15m
Waxing Gibbous, 92% of the Moon is Illuminated
Dec 7
Waxing Gibbous
Dec 10
Full
Dec 17
Last Quarter
Dec 24
New
Jan 1
First Quarter

Hourly Weather History & Observations

Time (CST) Temp. Windchill Dew Point Humidity Pressure Visibility Wind Dir Wind Speed Gust Speed Precip Events Conditions
12:03 AM 48.2 °F - 44.6 °F 87% 30.07 in 10.0 mi NW 5.8 mph - 0.00 in Rain Light Rain
12:17 AM 48.2 °F - 44.6 °F 87% 30.07 in 10.0 mi Variable 5.8 mph - 0.00 in Rain Light Rain
12:53 AM 46.9 °F - 45.0 °F 93% 30.07 in 9.0 mi WNW 6.9 mph - 0.01 in Rain Light Rain
2:20 AM 44.6 °F 41.4 °F 42.8 °F 93% 30.07 in 7.0 mi NW 5.8 mph - 0.01 in Rain Light Rain
2:31 AM 44.6 °F 41.4 °F 42.8 °F 93% 30.07 in 5.0 mi NNW 5.8 mph - 0.02 in Rain Light Rain
3:53 AM 43.0 °F 38.2 °F 39.9 °F 89% 30.08 in 10.0 mi WNW 8.1 mph 16.1 mph 0.00 in   Overcast
4:53 AM 42.1 °F 35.7 °F 39.0 °F 89% 30.11 in 10.0 mi WNW 11.5 mph 16.1 mph N/A   Overcast
5:53 AM 41.0 °F 35.8 °F 37.9 °F 89% 30.13 in 9.0 mi WNW 8.1 mph - N/A   Overcast
6:53 AM 39.9 °F 34.5 °F 37.0 °F 89% 30.16 in 10.0 mi NW 8.1 mph - N/A   Overcast
7:13 AM 41.0 °F 35.2 °F 35.6 °F 81% 30.17 in 10.0 mi NW 9.2 mph 17.3 mph N/A   Overcast
7:53 AM 41.0 °F 35.8 °F 36.0 °F 82% 30.20 in 10.0 mi WNW 8.1 mph 19.6 mph N/A   Overcast
8:53 AM 42.1 °F 36.6 °F 34.0 °F 73% 30.23 in 10.0 mi WNW 9.2 mph 24.2 mph N/A   Mostly Cloudy
9:53 AM 44.1 °F 40.8 °F 35.1 °F 71% 30.24 in 10.0 mi Variable 5.8 mph 18.4 mph N/A   Mostly Cloudy
10:04 AM 44.6 °F 38.1 °F 35.6 °F 71% 30.23 in 10.0 mi NW 13.8 mph 19.6 mph N/A   Mostly Cloudy
10:27 AM 46.4 °F 40.4 °F 33.8 °F 62% 30.22 in 10.0 mi West 13.8 mph 24.2 mph N/A   Scattered Clouds
10:53 AM 48.0 °F - 35.1 °F 61% 30.22 in 10.0 mi NNW 13.8 mph 20.7 mph N/A   Mostly Cloudy
11:51 AM 48.2 °F - 33.8 °F 58% 30.20 in 10.0 mi NW 12.7 mph - N/A   Scattered Clouds
11:53 AM 48.0 °F - 34.0 °F 58% 30.21 in 10.0 mi NNW 11.5 mph 19.6 mph N/A   Scattered Clouds
12:53 PM 48.0 °F - 34.0 °F 58% 30.20 in 10.0 mi NW 12.7 mph 24.2 mph N/A   Mostly Cloudy
1:53 PM 48.0 °F - 30.9 °F 52% 30.19 in 10.0 mi NNW 13.8 mph 20.7 mph N/A   Partly Cloudy
2:53 PM 46.0 °F 40.2 °F 30.0 °F 54% 30.21 in 10.0 mi NNW 12.7 mph 20.7 mph N/A   Clear
3:53 PM 42.1 °F 35.7 °F 30.0 °F 62% 30.24 in 10.0 mi NNW 11.5 mph - N/A   Overcast
4:53 PM 41.0 °F 36.4 °F 30.0 °F 65% 30.25 in 10.0 mi NNW 6.9 mph - N/A   Overcast
6:53 PM 39.9 °F 33.9 °F 30.0 °F 68% 30.30 in 10.0 mi NNW 9.2 mph - N/A   Overcast
7:53 PM 39.9 °F 32.1 °F 30.0 °F 68% 30.31 in 10.0 mi NNW 13.8 mph 19.6 mph N/A   Overcast
8:53 PM 39.9 °F 32.5 °F 30.0 °F 68% 30.32 in 10.0 mi NNW 12.7 mph 20.7 mph N/A   Overcast
9:53 PM 39.9 °F 35.1 °F 30.0 °F 68% 30.34 in 10.0 mi North 6.9 mph 18.4 mph N/A   Overcast
10:53 PM 39.9 °F 32.1 °F 30.0 °F 68% 30.32 in 10.0 mi North 13.8 mph - N/A   Overcast
11:32 PM 39.2 °F 31.2 °F 28.4 °F 65% 30.30 in 10.0 mi NNE 13.8 mph 24.2 mph N/A   Scattered Clouds
11:45 PM 37.4 °F 28.9 °F 30.2 °F 75% 30.30 in 10.0 mi North 13.8 mph 18.4 mph N/A   Mostly Cloudy
11:53 PM 39.0 °F 30.3 °F 28.9 °F 67% 30.30 in 10.0 mi North 16.1 mph 23.0 mph N/A   Mostly Cloudy